• en Suisse
  • Liste des pays
  • À 7 jours
  • Température de l'eau
  • Carte satellitaire
  • Carte météo
  • Widgets météo
  • user-avatar
    Se connecter

    Météo par heure à Gloster

    Ce jour, 26 Mai, Samedi

    Heure Température Précipitation Vent Pression Humidité
    00:00 +13°C° 0 mm 2 m/s 759 mmHg 97%
    01:00 +13°C° 0 mm 2 m/s 759 mmHg 97%
    02:00 +12°C° 0 mm 3 m/s 759 mmHg 98%
    03:00 +13°C° 0 mm 3 m/s 759 mmHg 98%
    04:00 +13°C° 0 mm 3 m/s 759 mmHg 97%
    05:00 +13°C° 0 mm 3 m/s 759 mmHg 97%
    06:00 +13°C° 0 mm 4 m/s 759 mmHg 96%
    07:00 +14°C° 0 mm 4 m/s 759 mmHg 95%
    08:00 +14°C° 0 mm 4 m/s 759 mmHg 94%
    09:00 +15°C° 0 mm 4 m/s 759 mmHg 92%
    10:00 +17°C° 0,1 mm 5 m/s 759 mmHg 88%
    11:00 +19°C° 0,1 mm 5 m/s 759 mmHg 85%
    12:00 +21°C° 0,1 mm 5 m/s 759 mmHg 81%
    13:00 +21°C° 0,7 mm 6 m/s 758 mmHg 81%
    14:00 +22°C° 0,7 mm 6 m/s 758 mmHg 82%
    15:00 +22°C° 0,7 mm 6 m/s 758 mmHg 82%
    16:00 +22°C° 0,1 mm 6 m/s 757 mmHg 83%
    17:00 +22°C° 0,1 mm 6 m/s 757 mmHg 83%
    18:00 +21°C° 0,1 mm 6 m/s 757 mmHg 84%
    19:00 +20°C° 0 mm 6 m/s 757 mmHg 85%
    20:00 +18°C° 0 mm 7 m/s 757 mmHg 85%
    21:00 +17°C° 0 mm 7 m/s 757 mmHg 86%
    22:00 +16°C° 0 mm 7 m/s 757 mmHg 87%
    23:00 +16°C° 0 mm 7 m/s 757 mmHg 88%

    Demain, 27 Mai, Dimanche

    Heure Température Précipitation Vent Pression Humidité
    00:00 +15°C° 0 mm 6 m/s 757 mmHg 89%
    01:00 +15°C° 0,2 mm 6 m/s 756 mmHg 91%
    02:00 +15°C° 0,2 mm 6 m/s 756 mmHg 93%
    03:00 +14°C° 0,2 mm 5 m/s 755 mmHg 94%
    04:00 +15°C° 0,7 mm 5 m/s 755 mmHg 94%
    05:00 +15°C° 0,7 mm 5 m/s 755 mmHg 95%
    06:00 +16°C° 0,7 mm 5 m/s 755 mmHg 95%
    07:00 +17°C° 0,4 mm 5 m/s 755 mmHg 93%
    08:00 +19°C° 0,4 mm 5 m/s 755 mmHg 91%
    09:00 +20°C° 0,4 mm 5 m/s 755 mmHg 89%
    10:00 +21°C° 0,4 mm 4 m/s 755 mmHg 88%
    11:00 +21°C° 0,4 mm 4 m/s 755 mmHg 87%
    12:00 +22°C° 0,4 mm 4 m/s 755 mmHg 86%
    13:00 +22°C° 2,2 mm 4 m/s 755 mmHg 85%
    14:00 +22°C° 2,2 mm 4 m/s 754 mmHg 84%
    15:00 +22°C° 2,2 mm 3 m/s 754 mmHg 83%
    16:00 +22°C° 0,9 mm 3 m/s 754 mmHg 84%
    17:00 +22°C° 0,9 mm 3 m/s 754 mmHg 84%
    18:00 +22°C° 0,9 mm 3 m/s 754 mmHg 85%
    19:00 +20°C° 0,1 mm 2 m/s 755 mmHg 88%
    20:00 +18°C° 0,1 mm 2 m/s 755 mmHg 90%
    21:00 +17°C° 0,1 mm 2 m/s 755 mmHg 93%
    22:00 +16°C° 0 mm 2 m/s 755 mmHg 94%
    23:00 +15°C° 0 mm 2 m/s 756 mmHg 94%

    Après-demain, 28 Mai, Lundi

    Heure Température Précipitation Vent Pression Humidité
    00:00 +14°C° 0 mm 1 m/s 756 mmHg 95%
    01:00 +14°C° 0 mm 1 m/s 756 mmHg 95%
    02:00 +14°C° 0 mm 1 m/s 756 mmHg 95%
    03:00 +14°C° 0 mm 1 m/s 756 mmHg 95%
    04:00 +14°C° 0 mm 1 m/s 757 mmHg 94%
    05:00 +15°C° 0 mm 1 m/s 757 mmHg 94%
    06:00 +15°C° 0 mm 0 m/s 757 mmHg 93%
    07:00 +18°C° 0 mm 1 m/s 757 mmHg 89%
    08:00 +20°C° 0 mm 1 m/s 758 mmHg 84%
    09:00 +21°C° 0 mm 1 m/s 758 mmHg 80%
    10:00 +22°C° 0 mm 1 m/s 758 mmHg 77%
    11:00 +23°C° 0 mm 1 m/s 758 mmHg 75%
    12:00 +24°C° 0 mm 1 m/s 758 mmHg 72%
    13:00 +24°C° 0 mm 1 m/s 758 mmHg 72%
    14:00 +24°C° 0 mm 2 m/s 758 mmHg 72%
    15:00 +25°C° 0 mm 2 m/s 758 mmHg 72%
    16:00 +24°C° 0,1 mm 2 m/s 758 mmHg 76%
    17:00 +24°C° 0,1 mm 2 m/s 758 mmHg 79%
    18:00 +24°C° 0,1 mm 3 m/s 758 mmHg 83%
    19:00 +21°C° 0 mm 3 m/s 758 mmHg 87%
    20:00 +20°C° 0 mm 3 m/s 758 mmHg 90%
    21:00 +18°C° 0 mm 3 m/s 758 mmHg 94%
    22:00 +18°C° 0,1 mm 3 m/s 758 mmHg 95%
    23:00 +17°C° 0,1 mm 3 m/s 758 mmHg 96%

    29 Mai, Mardi

    Heure Température Précipitation Vent Pression Humidité
    00:00 +17°C° 0,1 mm 3 m/s 758 mmHg 97%
    01:00 +16°C° 0 mm 3 m/s 758 mmHg 97%
    02:00 +15°C° 0 mm 4 m/s 758 mmHg 97%
    03:00 +15°C° 0 mm 4 m/s 758 mmHg 97%
    04:00 +15°C° 0 mm 4 m/s 758 mmHg 96%
    05:00 +15°C° 0 mm 4 m/s 757 mmHg 95%
    06:00 +15°C° 0 mm 4 m/s 757 mmHg 95%
    07:00 +17°C° 0 mm 4 m/s 757 mmHg 93%
    08:00 +17°C° 0 mm 5 m/s 757 mmHg 90%
    09:00 +19°C° 0 mm 5 m/s 757 mmHg 88%
    10:00 +20°C° 0 mm 5 m/s 757 mmHg 85%
    11:00 +21°C° 0 mm 5 m/s 757 mmHg 82%
    12:00 +23°C° 0 mm 5 m/s 757 mmHg 79%
    13:00 +23°C° 0,2 mm 5 m/s 756 mmHg 79%
    14:00 +23°C° 0,2 mm 5 m/s 756 mmHg 79%
    15:00 +23°C° 0,2 mm 5 m/s 755 mmHg 79%
    16:00 +23°C° 0,8 mm 5 m/s 755 mmHg 81%
    17:00 +22°C° 0,8 mm 5 m/s 755 mmHg 83%
    18:00 +22°C° 0,8 mm 5 m/s 755 mmHg 86%
    19:00 +20°C° 0,3 mm 4 m/s 755 mmHg 88%
    20:00 +19°C° 0,3 mm 4 m/s 755 mmHg 90%
    21:00 +17°C° 0,3 mm 4 m/s 755 mmHg 93%
    22:00 +17°C° 0 mm 4 m/s 755 mmHg 94%
    23:00 +15°C° 0 mm 4 m/s 755 mmHg 95%

    30 Mai, Mercredi

    Heure Température Précipitation Vent Pression Humidité
    00:00 +14°C° 0 mm 4 m/s 755 mmHg 95%
    01:00 +13°C° 0,1 mm 4 m/s 755 mmHg 96%
    02:00 +13°C° 0,1 mm 4 m/s 754 mmHg 96%
    03:00 +13°C° 0,1 mm 4 m/s 754 mmHg 96%
    04:00 +13°C° 0,2 mm 4 m/s 754 mmHg 95%
    05:00 +13°C° 0,2 mm 4 m/s 754 mmHg 95%
    06:00 +13°C° 0,2 mm 4 m/s 754 mmHg 95%
    07:00 +14°C° 0,4 mm 4 m/s 754 mmHg 94%
    08:00 +14°C° 0,4 mm 4 m/s 754 mmHg 94%
    09:00 +14°C° 0,4 mm 4 m/s 754 mmHg 94%
    10:00 +15°C° 0,8 mm 4 m/s 754 mmHg 94%
    11:00 +16°C° 0,8 mm 3 m/s 754 mmHg 94%
    12:00 +17°C° 0,8 mm 3 m/s 754 mmHg 94%
    13:00 +17°C° 0,6 mm 3 m/s 753 mmHg 93%
    14:00 +18°C° 0,6 mm 3 m/s 753 mmHg 93%
    15:00 +18°C° 0,6 mm 3 m/s 753 mmHg 93%
    16:00 +18°C° 0,4 mm 2 m/s 753 mmHg 93%
    17:00 +18°C° 0,4 mm 2 m/s 753 mmHg 94%
    18:00 +19°C° 0,4 mm 2 m/s 752 mmHg 94%
    19:00 +18°C° 0,5 mm 2 m/s 753 mmHg 95%
    20:00 +18°C° 0,5 mm 2 m/s 753 mmHg 95%
    21:00 +17°C° 0,5 mm 3 m/s 753 mmHg 95%
    22:00 +16°C° 0,2 mm 2 m/s 753 mmHg 95%
    23:00 +16°C° 0,2 mm 2 m/s 753 mmHg 96%

    31 Mai, Jeudi

    Heure Température Précipitation Vent Pression Humidité
    00:00 +15°C° 0,2 mm 2 m/s 753 mmHg 96%
    01:00 +15°C° 0 mm 2 m/s 753 mmHg 96%
    02:00 +14°C° 0 mm 2 m/s 753 mmHg 96%
    03:00 +14°C° 0 mm 2 m/s 753 mmHg 96%
    04:00 +14°C° 0 mm 2 m/s 753 mmHg 95%
    05:00 +14°C° 0 mm 2 m/s 753 mmHg 95%
    06:00 +14°C° 0 mm 2 m/s 753 mmHg 95%
    07:00 +15°C° 0 mm 2 m/s 753 mmHg 92%
    08:00 +16°C° 0 mm 2 m/s 754 mmHg 90%
    09:00 +17°C° 0 mm 2 m/s 754 mmHg 87%
    10:00 +18°C° 0 mm 2 m/s 754 mmHg 85%
    11:00 +20°C° 0 mm 1 m/s 754 mmHg 83%
    12:00 +21°C° 0 mm 1 m/s 754 mmHg 81%
    13:00 +21°C° 0,1 mm 1 m/s 754 mmHg 79%
    14:00 +22°C° 0,1 mm 1 m/s 754 mmHg 77%
    15:00 +23°C° 0,1 mm 1 m/s 754 mmHg 76%
    16:00 +23°C° 0,3 mm 1 m/s 754 mmHg 78%
    17:00 +22°C° 0,3 mm 1 m/s 754 mmHg 80%
    18:00 +22°C° 0,3 mm 1 m/s 754 mmHg 82%
    19:00 +21°C° 0,2 mm 1 m/s 754 mmHg 85%
    20:00 +20°C° 0,2 mm 1 m/s 755 mmHg 88%
    21:00 +18°C° 0,2 mm 1 m/s 755 mmHg 92%
    22:00 +18°C° 0 mm 1 m/s 755 mmHg 93%
    23:00 +16°C° 0 mm 1 m/s 755 mmHg 94%
    Voir plus